CW2995 Weather Reports


time (UTC)temp
C
wind
direction
speed
KPH
gust
KPH
rain 1hr
cm
rain 24hr
cm
rain mn
cm
humidity
%
barometer
mb
20260508043759 16 235 8.0 12.9 0.00 0.00 0.00 85 1015.4
20260508043244 16 224 6.4 9.7 0.00 0.00 0.00 84 1015.4
20260508042750 16 232 4.8 9.7 0.00 0.00 0.00 84 1015.0
20260508042315 16 240 4.8 12.9 0.00 0.00 0.00 85 1015.0
20260508041800 16 250 3.2 12.9 0.00 0.00 0.00 85 1015.0
20260508041247 16 235 4.8 8.0 0.00 0.00 0.00 85 1015.0
20260508040821 16 267 3.2 6.4 0.00 0.00 0.00 86 1015.0
20260508040305 16 241 4.8 8.0 0.00 0.00 0.00 86 1015.0
20260508035810 16 263 4.8 8.0 0.00 0.00 0.00 86 1014.9
20260508035253 16 269 4.8 6.4 0.00 0.00 0.00 86 1014.9
20260508034758 16 237 3.2 6.4 0.00 0.00 0.00 85 1014.9
20260508034301 16 243 1.6 6.4 0.00 0.00 0.00 85 1014.5
20260508033744 16 255 1.6 12.9 0.00 0.00 0.00 85 1014.5
20260508033319 16 245 3.2 12.9 0.00 0.00 0.00 84 1014.5
20260508032802 16 231 3.2 9.7 0.00 0.00 0.00 83 1014.5
20260508032309 16 228 4.8 8.0 0.00 0.00 0.00 83 1014.5
20260508031748 16 230 4.8 8.0 0.00 0.00 0.00 83 1014.5
20260508031252 16 220 4.8 8.0 0.00 0.00 0.00 83 1014.3
20260508030757 16 290 1.6 6.4 0.00 0.00 0.00 83 1014.3
20260508030309 16 240 3.2 9.7 0.00 0.00 0.00 82 1014.3
20260508025746 16 233 3.2 11.3 0.00 0.00 0.00 82 1014.0
20260508025252 16 205 6.4 11.3 0.00 0.00 0.00 82 1014.0
20260508024756 16 245 6.4 11.3 0.00 0.00 0.00 82 1014.0
20260508024301 16 198 6.4 12.9 0.00 0.00 0.00 81 1014.0
20260508023747 16 227 8.0 12.9 0.00 0.00 0.00 81 1014.0
20260508023251 16 202 4.8 12.9 0.00 0.00 0.00 81 1014.0
20260508022755 16 242 6.4 12.9 0.00 0.00 0.00 81 1014.0
20260508022301 16 246 8.0 12.9 0.00 0.00 0.00 81 1014.0
20260508021803 16 248 4.8 12.9 0.00 0.00 0.00 81 1014.0
20260508021247 17 282 6.4 12.9 0.00 0.00 0.00 81 1013.9
20260508020751 16 229 8.0 16.1 0.00 0.00 0.00 82 1013.9
20260508020254 16 200 8.0 19.3 0.00 0.00 0.00 82 1013.9
20260508015759 17 197 9.7 19.3 0.00 0.00 0.00 81 1013.8
20260508015305 17 229 3.2 14.5 0.00 0.00 0.00 80 1013.8
20260508014759 17 232 8.0 14.5 0.00 0.00 0.00 79 1013.8
20260508014304 17 262 6.4 14.5 0.00 0.00 0.00 78 1013.6
20260508013749 17 242 6.4 12.9 0.00 0.00 0.00 77 1013.6
20260508013254 17 207 8.0 14.5 0.00 0.00 0.00 77 1013.6
20260508012757 17 263 8.0 14.5 0.00 0.00 0.00 78 1013.7
20260508012300 17 236 9.7 16.1 0.00 0.00 0.00 78 1013.7
20260508011804 17 277 9.7 12.9 0.00 0.00 0.00 77 1013.7
20260508011309 18 231 9.7 17.7 0.00 0.00 0.00 76 1013.8
20260508010753 18 238 6.4 17.7 0.00 0.00 0.00 76 1013.8
20260508010257 18 234 8.0 14.5 0.00 0.00 0.00 76 1013.8
20260508005801 18 200 9.7 16.1 0.00 0.00 0.00 75 1013.7
20260508005307 18 253 8.0 16.1 0.00 0.00 0.00 75 1013.7
20260508004811 18 261 8.0 17.7 0.00 0.00 0.00 75 1013.7
20260508004324 18 267 8.0 17.7 0.00 0.00 0.00 76 1013.8
20260508003806 18 243 9.7 14.5 0.00 0.00 0.00 75 1013.8
20260508003310 18 232 8.0 17.7 0.00 0.00 0.00 74 1013.8
20260508002751 18 268 9.7 19.3 0.00 0.00 0.00 75 1013.8
20260508002313 18 257 6.4 19.3 0.00 0.00 0.00 75 1013.8
20260508001757 18 288 8.0 16.1 0.00 0.00 0.00 75 1013.8
20260508001256 18 279 9.7 14.5 0.00 0.00 0.00 75 1013.8
20260508000800 18 266 6.4 17.7 0.00 0.00 0.00 76 1013.8
20260508000307 18 270 8.0 16.1 0.00 0.00 0.00 75 1013.8
20260507235757 18 279 6.4 17.7 0.00 0.00 0.00 76 1014.0
20260507235301 18 227 11.3 17.7 0.00 0.00 0.00 76 1014.0
20260507234806 18 256 8.0 17.7 0.00 0.00 0.00 76 1014.0
20260507234309 18 205 8.0 19.3 0.00 0.00 0.00 76 1014.0
20260507233747 18 254 8.0 16.1 0.00 0.00 0.00 76 1014.0
20260507233253 18 242 9.7 17.7 0.00 0.00 0.00 75 1014.0
20260507232758 18 293 9.7 17.7 0.00 0.00 0.00 76 1014.0
20260507232307 18 294 6.4 24.1 0.00 0.00 0.00 76 1014.0
20260507231743 18 272 8.0 17.7 0.00 0.00 0.00 76 1014.0
20260507231249 18 227 11.3 20.9 0.00 0.00 0.00 75 1014.0
20260507230817 18 254 11.3 20.9 0.00 0.00 0.00 75 1014.0
20260507230321 19 261 11.3 20.9 0.00 0.00 0.00 73 1014.0
20260507225745 19 237 11.3 20.9 0.00 0.00 0.00 74 1014.0
20260507225311 19 202 11.3 19.3 0.00 0.00 0.00 73 1014.0
20260507224822 18 270 12.9 24.1 0.00 0.00 0.00 74 1014.0
20260507224307 18 223 12.9 24.1 0.00 0.00 0.00 74 1014.0
20260507223752 18 245 12.9 24.1 0.00 0.00 0.00 74 1014.0
20260507223253 19 217 12.9 27.4 0.00 0.00 0.00 73 1014.0
20260507222757 19 261 16.1 27.4 0.00 0.00 0.00 72 1014.3
20260507222301 19 260 12.9 24.1 0.00 0.00 0.00 73 1014.3
20260507221806 18 273 9.7 25.7 0.00 0.00 0.00 74 1014.3
20260507221247 18 279 12.9 24.1 0.00 0.00 0.00 74 1014.5
20260507220752 18 255 12.9 24.1 0.00 0.00 0.00 73 1014.5
20260507220258 18 273 9.7 24.1 0.00 0.00 0.00 74 1014.5
20260507215800 18 281 12.9 22.5 0.00 0.00 0.00 73 1014.6
20260507215245 19 294 9.7 20.9 0.00 0.00 0.00 73 1014.6
20260507214744 19 267 11.3 22.5 0.00 0.00 0.00 73 1014.6
20260507214249 18 216 12.9 24.1 0.00 0.00 0.00 73 1014.7
20260507213755 18 255 12.9 25.7 0.00 0.00 0.00 74 1014.7
20260507213252 18 225 12.9 25.7 0.00 0.00 0.00 73 1014.7
20260507212802 19 237 11.3 22.5 0.00 0.00 0.00 73 1014.9
20260507212307 18 219 12.9 20.9 0.00 0.00 0.00 72 1014.9
20260507211810 19 217 11.3 19.3 0.00 0.00 0.00 72 1014.9
20260507211248 19 205 9.7 19.3 0.00 0.00 0.00 72 1015.0
20260507210750 18 226 9.7 19.3 0.00 0.00 0.00 73 1015.0
20260507210304 18 228 9.7 22.5 0.00 0.00 0.00 73 1015.0
20260507205809 18 232 11.3 22.5 0.00 0.00 0.00 72 1015.1
20260507205315 19 257 8.0 22.5 0.00 0.00 0.00 73 1015.1
20260507204801 18 218 12.9 22.5 0.00 0.00 0.00 73 1015.1
20260507204305 19 245 9.7 20.9 0.00 0.00 0.00 73 1015.1
20260507203752 19 245 12.9 22.5 0.00 0.00 0.00 72 1015.1
20260507203258 18 213 8.0 22.5 0.00 0.00 0.00 73 1015.1
20260507202803 19 282 12.9 20.9 0.00 0.00 0.00 72 1015.4
20260507202309 18 234 12.9 22.5 0.00 0.00 0.00 72 1015.4
20260507201751 18 239 9.7 22.5 0.00 0.00 0.00 73 1015.4
20260507201256 18 253 11.3 19.3 0.00 0.00 0.00 73 1015.5
20260507200800 18 250 11.3 17.7 0.00 0.00 0.00 72 1015.5
20260507200306 19 227 9.7 19.3 0.00 0.00 0.00 73 1015.5
20260507195750 18 249 11.3 20.9 0.00 0.00 0.00 73 1015.6
20260507195300 18 254 11.3 20.9 0.00 0.00 0.00 72 1015.6
20260507194803 18 276 9.7 20.9 0.00 0.00 0.00 73 1015.6
20260507194308 18 241 9.7 20.9 0.00 0.00 0.00 72 1015.6
20260507193813 18 271 11.3 19.3 0.00 0.00 0.00 73 1015.6
20260507193258 19 254 11.3 17.7 0.00 0.00 0.00 71 1015.6
20260507192823 19 270 9.7 16.1 0.00 0.00 0.00 71 1016.0
20260507192246 19 263 9.7 17.7 0.00 0.00 0.00 71 1016.0
20260507191752 19 265 9.7 17.7 0.00 0.00 0.00 72 1016.0
20260507191253 19 236 8.0 14.5 0.00 0.00 0.00 72 1016.1
20260507190800 19 235 8.0 17.7 0.00 0.00 0.00 73 1016.1
20260507190310 18 196 9.7 17.7 0.00 0.00 0.00 73 1016.1
20260507185746 19 244 8.0 14.5 0.00 0.00 0.00 72 1016.1
20260507185251 19 219 9.7 14.5 0.00 0.00 0.00 72 1016.1
20260507184753 19 231 8.0 17.7 0.00 0.00 0.00 72 1016.1
20260507184305 19 244 8.0 17.7 0.00 0.00 0.00 72 1016.1
20260507183806 19 223 8.0 14.5 0.00 0.00 0.00 72 1016.1
20260507183247 18 248 6.4 12.9 0.00 0.00 0.00 72 1016.1
20260507182752 18 228 9.7 14.5 0.00 0.00 0.00 72 1016.1
20260507182258 18 278 8.0 14.5 0.00 0.00 0.00 73 1016.1
20260507181802 18 221 8.0 16.1 0.00 0.00 0.00 72 1016.1
20260507181247 19 236 8.0 14.5 0.00 0.00 0.00 72 1016.1
20260507180749 19 271 8.0 12.9 0.00 0.00 0.00 72 1016.1
20260507180253 18 297 6.4 14.5 0.00 0.00 0.00 74 1016.1
20260507175757 18 207 9.7 14.5 0.00 0.00 0.00 74 1016.1
20260507175302 18 217 6.4 16.1 0.00 0.00 0.00 74 1016.1
20260507174747 18 232 6.4 14.5 0.00 0.00 0.00 74 1016.1
20260507174318 18 247 8.0 14.5 0.00 0.00 0.00 75 1016.2
20260507173823 18 225 8.0 12.9 0.00 0.00 0.00 75 1016.2
20260507173244 18 207 8.0 14.5 0.00 0.00 0.00 75 1016.2
20260507172748 18 233 8.0 12.9 0.00 0.00 0.00 74 1016.3
20260507172253 18 279 6.4 12.9 0.00 0.00 0.00 74 1016.3
20260507171822 18 296 8.0 12.9 0.00 0.00 0.00 74 1016.3
20260507171320 18 225 8.0 14.5 0.00 0.00 0.00 74 1016.2
20260507170744 18 186 6.4 14.5 0.00 0.00 0.00 74 1016.2
20260507170250 18 194 4.8 11.3 0.00 0.00 0.00 74 1016.2
20260507165751 18 254 4.8 12.9 0.00 0.00 0.00 75 1016.2
20260507165259 18 238 6.4 12.9 0.00 0.00 0.00 74 1016.2
20260507164744 18 200 4.8 11.3 0.00 0.00 0.00 74 1016.2
20260507164310 18 245 6.4 9.7 0.00 0.00 0.00 75 1016.3
20260507163753 18 239 4.8 9.7 0.00 0.00 0.00 75 1016.3
20260507163259 18 229 6.4 9.7 0.00 0.00 0.00 75 1016.3
20260507162745 18 260 4.8 11.3 0.00 0.00 0.00 75 1016.3
20260507162248 17 265 4.8 11.3 0.00 0.00 0.00 76 1016.3
20260507161753 17 217 3.2 11.3 0.00 0.00 0.00 76 1016.3
20260507161258 17 219 4.8 11.3 0.00 0.00 0.00 76 1016.4
20260507160802 17 315 4.8 8.0 0.00 0.00 0.00 75 1016.4
20260507160247 17 289 3.2 9.7 0.00 0.00 0.00 77 1016.4
20260507155749 17 311 4.8 9.7 0.00 0.00 0.00 76 1016.3
20260507155254 17 244 4.8 9.7 0.00 0.00 0.00 77 1016.3
20260507154808 17 232 3.2 6.4 0.00 0.00 0.00 77 1016.3
20260507154253 17 258 1.6 8.0 0.00 0.00 0.00 78 1016.3
20260507153757 17 280 1.6 8.0 0.00 0.00 0.00 78 1016.3
20260507153244 17 246 3.2 8.0 0.00 0.00 0.00 79 1016.3
20260507152749 17 213 4.8 8.0 0.00 0.00 0.00 79 1016.6
20260507152250 17 237 4.8 8.0 0.00 0.00 0.00 80 1016.6
20260507151817 16 238 4.8 11.3 0.00 0.00 0.00 80 1016.6
20260507151258 16 200 6.4 11.3 0.00 0.00 0.00 81 1016.4
20260507150804 16 244 3.2 9.7 0.00 0.00 0.00 81 1016.4
20260507150245 16 243 4.8 9.7 0.00 0.00 0.00 83 1016.4
20260507145751 16 245 3.2 9.7 0.00 0.00 0.00 83 1016.3
20260507145257 16 219 6.4 9.7 0.00 0.00 0.00 83 1016.3
20260507144802 16 244 4.8 11.3 0.00 0.00 0.00 83 1016.3
20260507144244 16 234 6.4 11.3 0.00 0.00 0.00 83 1016.2
20260507143746 16 220 4.8 9.7 0.00 0.00 0.00 83 1016.2
20260507143251 16 247 3.2 11.3 0.00 0.00 0.00 84 1016.2
20260507142824 16 236 4.8 11.3 0.00 0.00 0.00 84 1016.1
20260507142308 16 212 4.8 8.0 0.00 0.00 0.00 85 1016.1
20260507141753 15 248 3.2 9.7 0.00 0.00 0.00 85 1016.1
20260507141258 15 252 4.8 9.7 0.00 0.00 0.00 86 1016.0
20260507140800 15 225 4.8 6.4 0.00 0.00 0.00 86 1016.0
20260507140320 15 224 1.6 6.4 0.00 0.00 0.00 87 1016.0
20260507135750 15 250 3.2 6.4 0.00 0.00 0.00 88 1015.8
20260507135252 14 186 1.6 4.8 0.00 0.00 0.00 90 1015.8
20260507134757 13 246 1.6 3.2 0.00 0.00 0.00 90 1015.8
20260507134300 13 246 0.0 3.2 0.00 0.00 0.00 89 1015.6
20260507133801 13 250 0.0 0.0 0.00 0.00 0.00 90 1015.6
20260507133247 -17 0.0 0.0 0.00 0.00 0.00 1015.6
20260507132808 -17 0.0 0.0 0.00 0.00 0.00 1015.6
20260507132253 -17 0.0 0.0 0.00 0.00 0.00 1015.6
20260507131254 -17 0.0 0.0 0.00 0.00 0.00 1015.5
20260507130800 -17 0.0 0.0 0.00 0.00 0.00 1015.5
20260507130302 -17 0.0 0.0 0.00 0.00 0.00 1015.5
20260507125746 -17 0.0 0.0 0.00 0.00 0.00 1015.5
20260507125250 -17 0.0 0.0 0.00 0.00 0.00 1015.5
20260507124757 -17 0.0 0.0 0.00 0.00 0.00 1015.5
20260507123800 -17 0.0 0.0 0.00 0.00 0.00 1015.5
20260507123306 -17 0.0 0.0 0.00 0.00 0.00 1015.5
20260507122752 -17 0.0 0.0 0.00 0.00 0.00 1015.5
20260507122255 -17 0.0 0.0 0.00 0.00 0.00 1015.5
20260507121801 -17 0.0 0.0 0.00 0.00 0.00 1015.5
20260507121306 -17 0.0 0.0 0.00 0.00 0.00 1015.5
20260507120750 -17 0.0 0.0 0.00 0.00 0.00 1015.5
20260507120318 -17 0.0 0.0 0.00 0.00 0.00 1015.5
20260507115808 -17 0.0 0.0 0.00 0.00 0.00 1015.5
20260507115244 -17 0.0 0.0 0.00 0.00 0.00 1015.5
20260507114746 -17 0.0 0.0 0.00 0.00 0.00 1015.5
20260507114249 -17 0.0 0.0 0.00 0.00 0.00 1015.5
20260507113754 -17 0.0 0.0 0.00 0.00 0.00 1015.5
20260507113324 -17 250 0.0 0.0 0.00 0.00 0.00 1015.5
20260507112754 -17 250 0.0 0.0 0.00 0.00 0.00 1015.6
20260507112300 13 250 0.0 0.0 0.00 0.00 0.00 89 1015.6
20260507111802 13 250 0.0 0.0 0.00 0.00 0.00 89 1015.6
20260507111247 13 250 0.0 0.0 0.00 0.00 0.00 89 1015.6
20260507110753 13 250 0.0 0.0 0.00 0.00 0.00 89 1015.6
20260507110258 13 250 0.0 0.0 0.00 0.00 0.00 89 1015.6
20260507105823 13 250 0.0 0.0 0.00 0.00 0.00 89 1015.9
20260507105247 13 250 0.0 0.0 0.00 0.00 0.00 90 1015.9
20260507104752 13 250 0.0 0.0 0.00 0.00 0.00 89 1015.9
20260507104256 13 250 0.0 0.0 0.00 0.00 0.00 88 1016.0
20260507103822 13 250 0.0 0.0 0.00 0.00 0.00 89 1016.0
20260507103247 13 250 0.0 0.0 0.00 0.00 0.00 89 1016.0
20260507102752 13 250 0.0 0.0 0.00 0.00 0.00 89 1016.0
20260507102306 13 250 0.0 0.0 0.00 0.00 0.00 88 1016.0
20260507101808 13 250 0.0 0.0 0.00 0.00 0.00 87 1016.0
20260507101254 13 250 0.0 0.0 0.00 0.00 0.00 88 1016.1
20260507100759 13 250 0.0 0.0 0.00 0.00 0.00 87 1016.1
20260507100300 13 250 0.0 0.0 0.00 0.00 0.00 88 1016.1
20260507095804 13 250 0.0 0.0 0.00 0.00 0.00 88 1016.1
20260507095307 13 250 0.0 0.0 0.00 0.00 0.00 87 1016.1
20260507094745 13 250 0.0 0.0 0.00 0.00 0.00 87 1016.1
20260507094319 13 250 0.0 0.0 0.00 0.00 0.00 87 1016.2
20260507093821 13 250 0.0 0.0 0.00 0.00 0.00 87 1016.2
20260507093259 14 250 0.0 0.0 0.00 0.00 0.00 87 1016.2
20260507092746 14 250 0.0 0.0 0.00 0.00 0.00 86 1016.5
20260507092253 14 250 0.0 0.0 0.00 0.00 0.00 85 1016.5
20260507091757 14 250 0.0 0.0 0.00 0.00 0.00 85 1016.5
20260507091302 14 250 0.0 0.0 0.00 0.00 0.00 85 1016.5
20260507090745 15 250 0.0 0.0 0.00 0.00 0.00 85 1016.5
20260507090310 15 250 0.0 3.2 0.00 0.00 0.00 84 1016.5
20260507085755 15 250 0.0 3.2 0.00 0.00 0.00 84 1016.6
20260507085300 15 289 0.0 3.2 0.00 0.00 0.00 84 1016.6
20260507084746 15 281 1.6 3.2 0.00 0.00 0.00 84 1016.6
20260507084251 15 282 0.0 3.2 0.00 0.00 0.00 83 1016.6
20260507083754 15 296 1.6 3.2 0.00 0.00 0.00 84 1016.6
20260507083301 15 277 1.6 3.2 0.00 0.00 0.00 83 1016.6
20260507082813 15 298 1.6 4.8 0.00 0.00 0.00 83 1016.7
20260507082255 15 266 1.6 6.4 0.00 0.00 0.00 83 1016.7
20260507081801 15 258 1.6 9.7 0.00 0.00 0.00 83 1016.7
20260507081306 15 284 3.2 9.7 0.00 0.00 0.00 83 1016.8
20260507080745 15 281 3.2 6.4 0.00 0.00 0.00 84 1016.8
20260507080247 15 281 4.8 8.0 0.00 0.00 0.00 84 1016.8
20260507075755 15 278 3.2 8.0 0.00 0.00 0.00 84 1016.9
20260507075259 15 257 3.2 12.9 0.00 0.00 0.00 84 1016.9
20260507074744 15 261 3.2 9.7 0.00 0.00 0.00 84 1016.9
20260507074249 15 275 4.8 9.7 0.00 0.00 0.00 84 1017.0
20260507073750 15 240 3.2 9.7 0.00 0.00 0.00 84 1017.0
20260507073316 15 232 4.8 8.0 0.00 0.00 0.00 83 1017.0
20260507072742 15 273 3.2 9.7 0.00 0.00 0.00 83 1017.0
20260507072249 15 252 3.2 9.7 0.00 0.00 0.00 83 1017.0
20260507071750 15 217 6.4 9.7 0.00 0.00 0.00 83 1017.0
20260507071252 15 212 6.4 9.7 0.00 0.00 0.00 83 1017.0
20260507070756 15 241 4.8 9.7 0.00 0.00 0.00 84 1017.0
20260507070257 15 252 1.6 8.0 0.00 0.00 0.00 85 1017.0
20260507065801 15 290 3.2 6.4 0.00 0.00 0.00 86 1017.1
20260507065247 15 285 3.2 8.0 0.00 0.00 0.00 86 1017.1
20260507064748 15 224 3.2 8.0 0.00 0.00 0.00 86 1017.1
20260507064253 15 239 1.6 4.8 0.00 0.00 0.00 86 1017.1
20260507063755 15 250 0.0 4.8 0.00 0.00 0.00 86 1017.1
20260507063306 15 249 3.2 4.8 0.00 0.00 0.00 86 1017.1
20260507062745 15 316 3.2 6.4 0.00 0.00 0.00 86 1017.1
20260507062249 15 257 3.2 6.4 0.00 0.00 0.00 86 1017.1
20260507061759 15 247 3.2 8.0 0.00 0.00 0.00 85 1017.1
20260507061258 15 257 3.2 9.7 0.00 0.00 0.00 85 1017.1
20260507060745 15 273 3.2 9.7 0.00 0.00 0.00 85 1017.1
20260507060305 15 250 4.8 9.7 0.00 0.00 0.00 86 1017.1
20260507055745 15 257 3.2 8.0 0.00 0.00 0.00 85 1017.1
20260507055253 15 280 1.6 8.0 0.00 0.00 0.00 85 1017.1
20260507054758 15 296 3.2 12.9 0.00 0.00 0.00 85 1017.1
20260507054245 15 250 4.8 12.9 0.00 0.00 0.00 85 1017.2
20260507053747 15 249 6.4 11.3 0.00 0.00 0.00 85 1017.2
20260507053309 15 269 3.2 8.0 0.00 0.00 0.00 85 1017.2
20260507052745 15 266 3.2 11.3 0.00 0.00 0.00 85 1017.2
20260507052248 15 257 6.4 11.3 0.00 0.00 0.00 85 1017.2
20260507051754 15 250 4.8 8.0 0.00 0.00 0.00 85 1017.2
20260507051256 15 277 3.2 8.0 0.00 0.00 0.00 84 1017.1
20260507050758 15 277 3.2 9.7 0.00 0.00 0.00 84 1017.1
20260507050300 15 272 6.4 9.7 0.00 0.00 0.00 84 1017.1
20260507045743 15 238 3.2 9.7 0.00 0.00 0.00 84 1017.1
20260507045316 15 274 4.8 11.3 0.00 0.00 0.00 83 1017.1
20260507044758 15 234 4.8 11.3 0.00 0.00 0.00 83 1017.1
20260507044302 15 230 4.8 11.3 0.00 0.00 0.00 82 1017.1